owner,sensor,date,latitude,longitude,vertical_datum,sea_water_temperature,qcFlag
BP,ioos:station:wmo:42880:1,2023-10-01T00:07:00Z,27.2205,-90.0116,9.4,29.6,11111222
BP,ioos:station:wmo:42880:1,2023-10-01T00:17:00Z,27.2205,-90.0116,9.4,29.6,11111222
BP,ioos:station:wmo:42880:1,2023-10-01T00:27:00Z,27.2205,-90.0116,9.5,29.6,11111222
BP,ioos:station:wmo:42880:1,2023-10-01T00:37:00Z,27.2205,-90.0116,9.5,29.6,11111222
BP,ioos:station:wmo:42880:1,2023-10-01T00:47:00Z,27.2205,-90.0116,9.5,29.6,11111222
BP,ioos:station:wmo:42880:1,2023-10-01T00:57:00Z,27.2205,-90.0116,9.5,29.6,11111222
BP,ioos:station:wmo:42880:1,2023-10-01T01:07:00Z,27.2205,-90.0116,9.5,29.6,11111222
BP,ioos:station:wmo:42880:1,2023-10-01T01:17:00Z,27.2205,-90.0116,9.5,29.5,11111222
BP,ioos:station:wmo:42880:1,2023-10-01T01:27:00Z,27.2205,-90.0116,9.4,29.6,11111222
BP,ioos:station:wmo:42880:1,2023-10-01T01:37:00Z,27.2206,-90.0116,9.5,29.6,11111222
BP,ioos:station:wmo:42880:1,2023-10-01T01:47:00Z,27.2205,-90.0116,9.4,29.6,11111222
BP,ioos:station:wmo:42880:1,2023-10-01T01:57:00Z,27.2205,-90.0116,9.4,29.6,11111222
BP,ioos:station:wmo:42880:1,2023-10-01T02:07:00Z,27.2205,-90.0116,9.4,29.6,11111222
BP,ioos:station:wmo:42880:1,2023-10-01T02:17:00Z,27.2205,-90.0116,9.4,29.6,11111222
BP,ioos:station:wmo:42880:1,2023-10-01T02:27:00Z,27.2205,-90.0116,9.5,29.6,11111222
BP,ioos:station:wmo:42880:1,2023-10-01T02:37:00Z,27.2206,-90.0116,9.5,29.6,11111222
BP,ioos:station:wmo:42880:1,2023-10-01T02:47:00Z,27.2205,-90.0116,9.4,29.6,11111222
BP,ioos:station:wmo:42880:1,2023-10-01T02:57:00Z,27.2206,-90.0116,9.4,29.7,11111222
BP,ioos:station:wmo:42880:1,2023-10-01T03:07:00Z,27.2205,-90.0116,9.4,29.7,11111222
BP,ioos:station:wmo:42880:1,2023-10-01T03:17:00Z,27.2205,-90.0116,9.5,29.7,11111222
BP,ioos:station:wmo:42880:1,2023-10-01T03:27:00Z,27.2206,-90.0116,9.5,29.8,11111222
BP,ioos:station:wmo:42880:1,2023-10-01T03:38:00Z,27.2206,-90.0116,9.5,29.8,11111222
BP,ioos:station:wmo:42880:1,2023-10-01T03:48:00Z,27.2206,-90.0116,9.5,29.9,11111222
BP,ioos:station:wmo:42880:1,2023-10-01T03:58:00Z,27.2205,-90.0116,9.5,29.9,11111222
BP,ioos:station:wmo:42880:1,2023-10-01T04:08:00Z,27.2205,-90.0116,9.5,30.0,11111222
BP,ioos:station:wmo:42880:1,2023-10-01T04:18:00Z,27.2205,-90.0116,9.5,30.1,11111222
BP,ioos:station:wmo:42880:1,2023-10-01T04:28:00Z,27.2205,-90.0116,9.5,30.1,11111222
BP,ioos:station:wmo:42880:1,2023-10-01T04:38:00Z,27.2206,-90.0116,9.5,30.2,11111222
BP,ioos:station:wmo:42880:1,2023-10-01T04:48:00Z,27.2206,-90.0116,9.4,30.2,11111222
BP,ioos:station:wmo:42880:1,2023-10-01T04:58:00Z,27.2205,-90.0116,9.4,30.3,11111222
BP,ioos:station:wmo:42880:1,2023-10-01T05:08:00Z,27.2205,-90.0116,9.4,30.3,11111222
BP,ioos:station:wmo:42880:1,2023-10-01T05:18:00Z,27.2206,-90.0116,9.4,30.3,11111222
BP,ioos:station:wmo:42880:1,2023-10-01T05:28:00Z,27.2205,-90.0116,9.4,30.3,11111222
BP,ioos:station:wmo:42880:1,2023-10-01T05:38:00Z,27.2206,-90.0116,9.5,30.3,11111222
BP,ioos:station:wmo:42880:1,2023-10-01T05:48:00Z,27.2205,-90.0116,9.5,30.3,11111222
BP,ioos:station:wmo:42880:1,2023-10-01T05:58:00Z,27.2205,-90.0116,9.4,30.3,11111222
BP,ioos:station:wmo:42880:1,2023-10-01T06:08:00Z,27.2205,-90.0116,9.4,30.3,11111222
BP,ioos:station:wmo:42880:1,2023-10-01T06:18:00Z,27.2205,-90.0116,9.4,30.3,11111222
BP,ioos:station:wmo:42880:1,2023-10-01T06:28:00Z,27.2205,-90.0116,9.4,30.3,11111222
BP,ioos:station:wmo:42880:1,2023-10-01T06:38:00Z,27.2205,-90.0116,9.4,30.3,11111222
BP,ioos:station:wmo:42880:1,2023-10-01T06:48:00Z,27.2206,-90.0116,9.4,30.3,11111222
BP,ioos:station:wmo:42880:1,2023-10-01T06:58:00Z,27.2205,-90.0116,9.4,30.3,11111222
BP,ioos:station:wmo:42880:1,2023-10-01T07:08:00Z,27.2205,-90.0116,9.4,30.3,11111222
BP,ioos:station:wmo:42880:1,2023-10-01T07:18:00Z,27.2206,-90.0116,9.4,30.3,11111222
BP,ioos:station:wmo:42880:1,2023-10-01T07:28:00Z,27.2205,-90.0116,9.4,30.3,11111222
BP,ioos:station:wmo:42880:1,2023-10-01T07:38:00Z,27.2205,-90.0116,9.4,30.3,11111222
BP,ioos:station:wmo:42880:1,2023-10-01T07:48:00Z,27.2205,-90.0116,9.4,30.3,11111222
BP,ioos:station:wmo:42880:1,2023-10-01T07:58:00Z,27.2205,-90.0116,9.5,30.3,11111222
BP,ioos:station:wmo:42880:1,2023-10-01T08:08:00Z,27.2205,-90.0116,9.5,30.3,11111222
BP,ioos:station:wmo:42880:1,2023-10-01T08:18:00Z,27.2206,-90.0116,9.5,30.3,11111222
BP,ioos:station:wmo:42880:1,2023-10-01T08:28:00Z,27.2205,-90.0116,9.5,30.3,11111222
BP,ioos:station:wmo:42880:1,2023-10-01T08:38:00Z,27.2205,-90.0116,9.5,30.3,11111222
BP,ioos:station:wmo:42880:1,2023-10-01T08:48:00Z,27.2205,-90.0116,9.5,30.2,11111222
BP,ioos:station:wmo:42880:1,2023-10-01T08:58:00Z,27.2205,-90.0116,9.5,30.1,11111222
BP,ioos:station:wmo:42880:1,2023-10-01T09:08:00Z,27.2205,-90.0116,9.5,30.0,11111222
BP,ioos:station:wmo:42880:1,2023-10-01T09:18:00Z,27.2205,-90.0116,9.5,29.9,11111222
BP,ioos:station:wmo:42880:1,2023-10-01T09:28:00Z,27.2205,-90.0116,9.5,29.8,11111222
BP,ioos:station:wmo:42880:1,2023-10-01T09:38:00Z,27.2205,-90.0116,9.5,29.6,11111222
BP,ioos:station:wmo:42880:1,2023-10-01T09:48:00Z,27.2205,-90.0116,9.5,29.6,11111222
BP,ioos:station:wmo:42880:1,2023-10-01T09:58:00Z,27.2205,-90.0116,9.5,29.6,11111222
BP,ioos:station:wmo:42880:1,2023-10-01T10:08:00Z,27.2205,-90.0116,9.5,29.6,11111222
BP,ioos:station:wmo:42880:1,2023-10-01T10:18:00Z,27.2205,-90.0116,9.5,29.6,11111222
BP,ioos:station:wmo:42880:1,2023-10-01T10:28:00Z,27.2205,-90.0116,9.4,29.6,11111222
BP,ioos:station:wmo:42880:1,2023-10-01T10:38:00Z,27.2205,-90.0116,9.5,29.6,11111222
BP,ioos:station:wmo:42880:1,2023-10-01T10:48:00Z,27.2206,-90.0116,9.5,29.5,11111222
BP,ioos:station:wmo:42880:1,2023-10-01T10:59:00Z,27.2205,-90.0116,9.5,29.5,11111222
BP,ioos:station:wmo:42880:1,2023-10-01T11:09:00Z,27.2206,-90.0116,9.5,29.5,11111222
BP,ioos:station:wmo:42880:1,2023-10-01T11:19:00Z,27.2205,-90.0116,9.5,29.5,11111222
BP,ioos:station:wmo:42880:1,2023-10-01T11:29:00Z,27.2205,-90.0116,9.5,29.5,11111222
BP,ioos:station:wmo:42880:1,2023-10-01T11:39:00Z,27.2205,-90.0116,9.5,29.5,11111222
BP,ioos:station:wmo:42880:1,2023-10-01T11:49:00Z,27.2205,-90.0116,9.5,29.5,11111222
BP,ioos:station:wmo:42880:1,2023-10-01T11:59:00Z,27.2205,-90.0116,9.5,29.5,11111222
BP,ioos:station:wmo:42880:1,2023-10-01T12:09:00Z,27.2205,-90.0116,9.5,29.5,11111222
BP,ioos:station:wmo:42880:1,2023-10-01T12:19:00Z,27.2205,-90.0116,9.5,29.5,11111222
BP,ioos:station:wmo:42880:1,2023-10-01T12:29:00Z,27.2205,-90.0116,9.5,29.5,11111222
BP,ioos:station:wmo:42880:1,2023-10-01T12:39:00Z,27.2205,-90.0116,9.5,29.5,11111222
BP,ioos:station:wmo:42880:1,2023-10-01T12:49:00Z,27.2205,-90.0116,9.5,29.5,11111222
BP,ioos:station:wmo:42880:1,2023-10-01T12:59:00Z,27.2205,-90.0116,9.5,29.5,11111222
BP,ioos:station:wmo:42880:1,2023-10-01T13:09:00Z,27.2205,-90.0116,9.6,29.5,11111222
BP,ioos:station:wmo:42880:1,2023-10-01T13:19:00Z,27.2205,-90.0116,9.5,29.5,11111222
BP,ioos:station:wmo:42880:1,2023-10-01T13:29:00Z,27.2205,-90.0116,9.6,29.5,11111222
BP,ioos:station:wmo:42880:1,2023-10-01T13:39:00Z,27.2206,-90.0116,9.5,29.5,11111222
BP,ioos:station:wmo:42880:1,2023-10-01T13:49:00Z,27.2205,-90.0116,9.4,29.6,11111222
BP,ioos:station:wmo:42880:1,2023-10-01T13:59:00Z,27.2205,-90.0116,9.5,29.5,11111222
BP,ioos:station:wmo:42880:1,2023-10-01T14:09:00Z,27.2205,-90.0116,9.7,29.5,11111222
BP,ioos:station:wmo:42880:1,2023-10-01T14:19:00Z,27.2205,-90.0116,9.4,29.5,11111222
BP,ioos:station:wmo:42880:1,2023-10-01T14:29:00Z,27.2206,-90.0116,9.6,29.5,11111222
BP,ioos:station:wmo:42880:1,2023-10-01T14:39:00Z,27.2205,-90.0116,9.6,29.5,11111222
BP,ioos:station:wmo:42880:1,2023-10-01T14:49:00Z,27.2205,-90.0116,9.6,29.5,11111222
BP,ioos:station:wmo:42880:1,2023-10-01T14:59:00Z,27.2205,-90.0116,9.6,29.5,11111222
BP,ioos:station:wmo:42880:1,2023-10-01T15:09:00Z,27.2206,-90.0116,9.5,29.5,11111222
BP,ioos:station:wmo:42880:1,2023-10-01T15:19:00Z,27.2205,-90.0116,9.5,29.5,11111222
BP,ioos:station:wmo:42880:1,2023-10-01T15:29:00Z,27.2205,-90.0116,9.5,29.5,11111222
BP,ioos:station:wmo:42880:1,2023-10-01T15:39:00Z,27.2205,-90.0116,9.5,29.6,11111222
BP,ioos:station:wmo:42880:1,2023-10-01T15:49:00Z,27.2205,-90.0116,9.5,29.6,11111222
BP,ioos:station:wmo:42880:1,2023-10-01T15:59:00Z,27.2205,-90.0116,9.5,29.5,11111222
BP,ioos:station:wmo:42880:1,2023-10-01T16:09:00Z,27.2205,-90.0116,9.5,29.5,11111222
BP,ioos:station:wmo:42880:1,2023-10-01T16:19:00Z,27.2205,-90.0116,9.5,29.5,11111222
BP,ioos:station:wmo:42880:1,2023-10-01T16:29:00Z,27.2205,-90.0116,9.5,29.5,11111222
BP,ioos:station:wmo:42880:1,2023-10-01T16:39:00Z,27.2205,-90.0116,9.5,29.5,11111222
BP,ioos:station:wmo:42880:1,2023-10-01T16:49:00Z,27.2205,-90.0116,9.6,29.5,11111222
BP,ioos:station:wmo:42880:1,2023-10-01T16:59:00Z,27.2205,-90.0116,9.6,29.5,11111222
BP,ioos:station:wmo:42880:1,2023-10-01T17:09:00Z,27.2205,-90.0116,9.6,29.5,11111222
BP,ioos:station:wmo:42880:1,2023-10-01T17:19:00Z,27.2205,-90.0116,9.6,29.5,11111222
BP,ioos:station:wmo:42880:1,2023-10-01T17:29:00Z,27.2205,-90.0116,9.6,29.6,11111222
BP,ioos:station:wmo:42880:1,2023-10-01T17:39:00Z,27.2205,-90.0116,9.6,29.6,11111222
BP,ioos:station:wmo:42880:1,2023-10-01T17:49:00Z,27.2205,-90.0116,9.6,29.6,11111222
BP,ioos:station:wmo:42880:1,2023-10-01T17:59:00Z,27.2205,-90.0116,9.6,29.6,11111222
BP,ioos:station:wmo:42880:1,2023-10-01T18:09:00Z,27.2205,-90.0116,9.5,29.6,11111222
BP,ioos:station:wmo:42880:1,2023-10-01T18:20:00Z,27.2205,-90.0116,9.5,29.6,11111222
BP,ioos:station:wmo:42880:1,2023-10-01T18:30:00Z,27.2205,-90.0116,9.5,29.6,11111222
BP,ioos:station:wmo:42880:1,2023-10-01T18:40:00Z,27.2205,-90.0116,9.6,29.6,11111222
BP,ioos:station:wmo:42880:1,2023-10-01T18:50:00Z,27.2205,-90.0116,9.7,29.6,11111222
BP,ioos:station:wmo:42880:1,2023-10-01T19:00:00Z,27.2205,-90.0116,9.7,29.6,11111222
BP,ioos:station:wmo:42880:1,2023-10-01T19:10:00Z,27.2205,-90.0116,9.6,29.6,11111222
BP,ioos:station:wmo:42880:1,2023-10-01T19:20:00Z,27.2205,-90.0116,9.5,29.6,11111222
BP,ioos:station:wmo:42880:1,2023-10-01T19:30:00Z,27.2205,-90.0116,9.4,29.6,11111222
BP,ioos:station:wmo:42880:1,2023-10-01T19:40:00Z,27.2205,-90.0116,9.4,29.6,11111222
BP,ioos:station:wmo:42880:1,2023-10-01T19:50:00Z,27.2205,-90.0116,9.6,29.6,11111222
BP,ioos:station:wmo:42880:1,2023-10-01T20:00:00Z,27.2205,-90.0116,9.6,29.6,11111222
BP,ioos:station:wmo:42880:1,2023-10-01T20:10:00Z,27.2205,-90.0116,9.6,29.6,11111222
BP,ioos:station:wmo:42880:1,2023-10-01T20:20:00Z,27.2205,-90.0116,9.6,29.6,11111222
BP,ioos:station:wmo:42880:1,2023-10-01T20:30:00Z,27.2205,-90.0116,9.6,29.6,11111222
BP,ioos:station:wmo:42880:1,2023-10-01T20:40:00Z,27.2205,-90.0116,9.6,29.7,11111222
BP,ioos:station:wmo:42880:1,2023-10-01T20:50:00Z,27.2205,-90.0116,9.6,29.7,11111222
BP,ioos:station:wmo:42880:1,2023-10-01T21:00:00Z,27.2205,-90.0116,9.6,29.7,11111222
BP,ioos:station:wmo:42880:1,2023-10-01T21:10:00Z,27.2205,-90.0116,9.6,29.7,11111222
BP,ioos:station:wmo:42880:1,2023-10-01T21:20:00Z,27.2205,-90.0116,9.6,29.7,11111222
BP,ioos:station:wmo:42880:1,2023-10-01T21:30:00Z,27.2205,-90.0116,9.6,29.7,11111222
BP,ioos:station:wmo:42880:1,2023-10-01T21:40:00Z,27.2205,-90.0116,9.6,29.7,11111222
BP,ioos:station:wmo:42880:1,2023-10-01T21:50:00Z,27.2205,-90.0116,9.6,29.6,11111222
BP,ioos:station:wmo:42880:1,2023-10-01T22:00:00Z,27.2205,-90.0116,9.6,29.6,11111222
BP,ioos:station:wmo:42880:1,2023-10-01T22:10:00Z,27.2205,-90.0116,9.6,29.6,11111222
BP,ioos:station:wmo:42880:1,2023-10-01T22:20:00Z,27.2205,-90.0116,9.6,29.6,11111222
BP,ioos:station:wmo:42880:1,2023-10-01T22:30:00Z,27.2205,-90.0116,9.6,29.7,11111222
BP,ioos:station:wmo:42880:1,2023-10-01T22:40:00Z,27.2205,-90.0116,9.5,29.8,11111222
BP,ioos:station:wmo:42880:1,2023-10-01T22:50:00Z,27.2205,-90.0116,9.5,29.8,11111222
BP,ioos:station:wmo:42880:1,2023-10-01T23:00:00Z,27.2205,-90.0116,9.5,29.8,11111222
BP,ioos:station:wmo:42880:1,2023-10-01T23:10:00Z,27.2205,-90.0116,9.6,29.8,11111222
BP,ioos:station:wmo:42880:1,2023-10-01T23:20:00Z,27.2206,-90.0116,9.6,29.7,11111222
BP,ioos:station:wmo:42880:1,2023-10-01T23:30:00Z,27.2205,-90.0116,9.6,29.7,11111222
BP,ioos:station:wmo:42880:1,2023-10-01T23:40:00Z,27.2205,-90.0116,9.6,29.7,11111222
BP,ioos:station:wmo:42880:1,2023-10-01T23:50:00Z,27.2205,-90.0116,9.6,29.6,11111222
BP,ioos:station:wmo:42880:1,2023-10-02T00:00:00Z,27.2205,-90.0116,9.6,29.8,11111222
BP,ioos:station:wmo:42880:1,2023-10-02T00:10:00Z,27.2205,-90.0116,9.6,29.8,11111222
BP,ioos:station:wmo:42880:1,2023-10-02T00:20:00Z,27.2205,-90.0116,9.6,29.8,11111222
BP,ioos:station:wmo:42880:1,2023-10-02T00:30:00Z,27.2205,-90.0116,9.6,29.7,11111222
BP,ioos:station:wmo:42880:1,2023-10-02T00:40:00Z,27.2205,-90.0116,9.6,29.7,11111222
BP,ioos:station:wmo:42880:1,2023-10-02T00:50:00Z,27.2205,-90.0116,9.6,29.6,11111222
BP,ioos:station:wmo:42880:1,2023-10-02T01:00:00Z,27.2205,-90.0116,9.6,29.6,11111222
BP,ioos:station:wmo:42880:1,2023-10-02T01:10:00Z,27.2205,-90.0116,9.6,29.5,11111222
BP,ioos:station:wmo:42880:1,2023-10-02T01:20:00Z,27.2205,-90.0116,9.6,29.4,11111222
BP,ioos:station:wmo:42880:1,2023-10-02T01:30:00Z,27.2205,-90.0116,9.6,29.5,11111222
BP,ioos:station:wmo:42880:1,2023-10-02T01:41:00Z,27.2205,-90.0116,9.6,29.5,11111222
BP,ioos:station:wmo:42880:1,2023-10-02T01:51:00Z,27.2205,-90.0116,9.6,29.6,11111222
BP,ioos:station:wmo:42880:1,2023-10-02T02:01:00Z,27.2205,-90.0116,9.6,29.6,11111222
BP,ioos:station:wmo:42880:1,2023-10-02T02:11:00Z,27.2205,-90.0116,9.6,29.6,11111222
BP,ioos:station:wmo:42880:1,2023-10-02T02:21:00Z,27.2205,-90.0116,9.6,29.6,11111222
BP,ioos:station:wmo:42880:1,2023-10-02T02:31:00Z,27.2205,-90.0116,9.6,29.7,11111222
BP,ioos:station:wmo:42880:1,2023-10-02T02:41:00Z,27.2205,-90.0116,9.6,29.7,11111222
BP,ioos:station:wmo:42880:1,2023-10-02T02:51:00Z,27.2205,-90.0116,9.6,29.7,11111222
BP,ioos:station:wmo:42880:1,2023-10-02T03:01:00Z,27.2205,-90.0116,9.6,29.7,11111222
BP,ioos:station:wmo:42880:1,2023-10-02T03:11:00Z,27.2205,-90.0116,9.6,29.7,11111222
BP,ioos:station:wmo:42880:1,2023-10-02T03:21:00Z,27.2205,-90.0116,9.6,29.7,11111222
BP,ioos:station:wmo:42880:1,2023-10-02T03:31:00Z,27.2205,-90.0116,9.6,29.7,11111222
BP,ioos:station:wmo:42880:1,2023-10-02T03:41:00Z,27.2205,-90.0116,9.6,29.7,11111222
BP,ioos:station:wmo:42880:1,2023-10-02T03:51:00Z,27.2205,-90.0116,9.5,29.8,11111222
BP,ioos:station:wmo:42880:1,2023-10-02T04:01:00Z,27.2205,-90.0116,9.6,29.8,11111222
BP,ioos:station:wmo:42880:1,2023-10-02T04:11:00Z,27.2205,-90.0116,9.6,29.7,11111222
BP,ioos:station:wmo:42880:1,2023-10-02T04:21:00Z,27.2205,-90.0116,9.6,29.7,11111222
BP,ioos:station:wmo:42880:1,2023-10-02T04:31:00Z,27.2205,-90.0116,9.6,29.7,11111222
BP,ioos:station:wmo:42880:1,2023-10-02T04:41:00Z,27.2205,-90.0116,9.6,29.6,11111222
BP,ioos:station:wmo:42880:1,2023-10-02T04:51:00Z,27.2205,-90.0116,9.6,29.6,11111222
BP,ioos:station:wmo:42880:1,2023-10-02T05:01:00Z,27.2205,-90.0116,9.6,29.6,11111222
BP,ioos:station:wmo:42880:1,2023-10-02T05:11:00Z,27.2205,-90.0116,9.6,29.5,11111222
BP,ioos:station:wmo:42880:1,2023-10-02T05:21:00Z,27.2205,-90.0116,9.6,29.5,11111222
BP,ioos:station:wmo:42880:1,2023-10-02T05:31:00Z,27.2205,-90.0116,9.6,29.5,11111222
BP,ioos:station:wmo:42880:1,2023-10-02T05:41:00Z,27.2205,-90.0116,9.6,29.5,11111222
BP,ioos:station:wmo:42880:1,2023-10-02T05:51:00Z,27.2205,-90.0116,9.6,29.5,11111222
BP,ioos:station:wmo:42880:1,2023-10-02T06:01:00Z,27.2205,-90.0116,9.6,29.5,11111222
BP,ioos:station:wmo:42880:1,2023-10-02T06:11:00Z,27.2205,-90.0116,9.6,29.5,11111222
BP,ioos:station:wmo:42880:1,2023-10-02T06:21:00Z,27.2205,-90.0116,9.6,29.5,11111222
BP,ioos:station:wmo:42880:1,2023-10-02T06:31:00Z,27.2205,-90.0116,9.6,29.5,11111222
BP,ioos:station:wmo:42880:1,2023-10-02T06:41:00Z,27.2205,-90.0116,9.6,29.5,11111222
BP,ioos:station:wmo:42880:1,2023-10-02T06:51:00Z,27.2205,-90.0116,9.7,29.5,11111222
BP,ioos:station:wmo:42880:1,2023-10-02T07:01:00Z,27.2205,-90.0116,9.6,29.5,11111222
BP,ioos:station:wmo:42880:1,2023-10-02T07:11:00Z,27.2205,-90.0116,9.6,29.5,11111222
BP,ioos:station:wmo:42880:1,2023-10-02T07:21:00Z,27.2205,-90.0116,9.6,29.5,11111222
BP,ioos:station:wmo:42880:1,2023-10-02T07:31:00Z,27.2205,-90.0116,9.6,29.5,11111222
BP,ioos:station:wmo:42880:1,2023-10-02T07:41:00Z,27.2205,-90.0116,9.6,29.5,11111222
BP,ioos:station:wmo:42880:1,2023-10-02T07:51:00Z,27.2205,-90.0116,9.6,29.4,11111222
BP,ioos:station:wmo:42880:1,2023-10-02T08:01:00Z,27.2205,-90.0116,9.6,29.4,11111222
BP,ioos:station:wmo:42880:1,2023-10-02T08:11:00Z,27.2205,-90.0116,9.7,29.4,11111222
BP,ioos:station:wmo:42880:1,2023-10-02T08:21:00Z,27.2205,-90.0116,9.7,29.4,11111222
BP,ioos:station:wmo:42880:1,2023-10-02T08:31:00Z,27.2205,-90.0116,9.7,29.5,11111222
BP,ioos:station:wmo:42880:1,2023-10-02T08:41:00Z,27.2205,-90.0116,9.7,29.5,11111222
BP,ioos:station:wmo:42880:1,2023-10-02T08:51:00Z,27.2205,-90.0116,9.6,29.5,11111222
BP,ioos:station:wmo:42880:1,2023-10-02T09:02:00Z,27.2205,-90.0116,9.6,29.5,11111222
BP,ioos:station:wmo:42880:1,2023-10-02T09:12:00Z,27.2205,-90.0116,9.6,29.5,11111222
BP,ioos:station:wmo:42880:1,2023-10-02T09:22:00Z,27.2205,-90.0116,9.5,29.5,11111222
BP,ioos:station:wmo:42880:1,2023-10-02T09:32:00Z,27.2205,-90.0116,9.6,29.5,11111222
BP,ioos:station:wmo:42880:1,2023-10-02T09:42:00Z,27.2205,-90.0116,9.6,29.5,11111222
BP,ioos:station:wmo:42880:1,2023-10-02T09:52:00Z,27.2205,-90.0116,9.6,29.5,11111222
BP,ioos:station:wmo:42880:1,2023-10-02T10:02:00Z,27.2205,-90.0116,9.6,29.6,11111222
BP,ioos:station:wmo:42880:1,2023-10-02T10:12:00Z,27.2205,-90.0116,9.6,29.6,11111222
BP,ioos:station:wmo:42880:1,2023-10-02T10:22:00Z,27.2205,-90.0116,9.6,29.6,11111222
BP,ioos:station:wmo:42880:1,2023-10-02T10:32:00Z,27.2205,-90.0116,9.5,29.9,11111222
BP,ioos:station:wmo:42880:1,2023-10-02T10:42:00Z,27.2205,-90.0116,9.6,30.2,11111222
BP,ioos:station:wmo:42880:1,2023-10-02T10:52:00Z,27.2205,-90.0116,9.6,30.2,11111222
BP,ioos:station:wmo:42880:1,2023-10-02T11:02:00Z,27.2205,-90.0116,9.6,30.3,11111222
BP,ioos:station:wmo:42880:1,2023-10-02T11:12:00Z,27.2205,-90.0116,9.6,30.3,11111222
BP,ioos:station:wmo:42880:1,2023-10-02T11:22:00Z,27.2205,-90.0116,9.6,30.3,11111222
BP,ioos:station:wmo:42880:1,2023-10-02T11:32:00Z,27.2205,-90.0116,9.6,30.3,11111222
BP,ioos:station:wmo:42880:1,2023-10-02T11:42:00Z,27.2205,-90.0116,9.6,30.3,11111222
BP,ioos:station:wmo:42880:1,2023-10-02T11:52:00Z,27.2205,-90.0116,9.6,30.3,11111222
BP,ioos:station:wmo:42880:1,2023-10-02T12:02:00Z,27.2205,-90.0116,9.6,30.3,11111222
BP,ioos:station:wmo:42880:1,2023-10-02T12:12:00Z,27.2205,-90.0116,9.6,30.3,11111222
BP,ioos:station:wmo:42880:1,2023-10-02T12:22:00Z,27.2205,-90.0116,9.6,30.3,11111222
BP,ioos:station:wmo:42880:1,2023-10-02T12:32:00Z,27.2205,-90.0116,9.6,30.3,11111222
BP,ioos:station:wmo:42880:1,2023-10-02T12:42:00Z,27.2205,-90.0116,9.6,30.3,11111222
BP,ioos:station:wmo:42880:1,2023-10-02T12:52:00Z,27.2205,-90.0116,9.6,30.3,11111222
BP,ioos:station:wmo:42880:1,2023-10-02T13:02:00Z,27.2205,-90.0116,9.6,30.3,11111222
BP,ioos:station:wmo:42880:1,2023-10-02T13:12:00Z,27.2205,-90.0116,9.6,30.3,11111222
BP,ioos:station:wmo:42880:1,2023-10-02T13:22:00Z,27.2205,-90.0116,9.6,30.3,11111222
BP,ioos:station:wmo:42880:1,2023-10-02T13:32:00Z,27.2205,-90.0116,9.6,30.3,11111222
BP,ioos:station:wmo:42880:1,2023-10-02T13:42:00Z,27.2205,-90.0116,9.6,30.3,11111222
BP,ioos:station:wmo:42880:1,2023-10-02T13:52:00Z,27.2205,-90.0116,9.5,30.2,11111222
BP,ioos:station:wmo:42880:1,2023-10-02T14:02:00Z,27.2205,-90.0116,9.6,30.3,11111222
BP,ioos:station:wmo:42880:1,2023-10-02T14:12:00Z,27.2205,-90.0116,9.6,30.3,11111222
BP,ioos:station:wmo:42880:1,2023-10-02T14:22:00Z,27.2205,-90.0116,9.7,30.3,11111222
BP,ioos:station:wmo:42880:1,2023-10-02T14:32:00Z,27.2205,-90.0116,9.8,30.3,11111222
BP,ioos:station:wmo:42880:1,2023-10-02T14:42:00Z,27.2205,-90.0116,9.7,30.3,11111222
BP,ioos:station:wmo:42880:1,2023-10-02T14:52:00Z,27.2205,-90.0116,9.7,30.2,11111222
BP,ioos:station:wmo:42880:1,2023-10-02T15:02:00Z,27.2205,-90.0116,9.7,30.2,11111222
BP,ioos:station:wmo:42880:1,2023-10-02T15:12:00Z,27.2205,-90.0116,9.7,30.2,11111222
BP,ioos:station:wmo:42880:1,2023-10-02T15:22:00Z,27.2205,-90.0116,9.8,30.2,11111222
BP,ioos:station:wmo:42880:1,2023-10-02T15:32:00Z,27.2205,-90.0116,9.8,30.2,11111222
BP,ioos:station:wmo:42880:1,2023-10-02T15:42:00Z,27.2205,-90.0116,9.8,30.2,11111222
BP,ioos:station:wmo:42880:1,2023-10-02T15:52:00Z,27.2205,-90.0116,9.8,30.3,11111222
BP,ioos:station:wmo:42880:1,2023-10-02T16:02:00Z,27.2205,-90.0116,9.9,30.3,11111222
BP,ioos:station:wmo:42880:1,2023-10-02T16:12:00Z,27.2205,-90.0116,9.9,30.3,11111222
BP,ioos:station:wmo:42880:1,2023-10-02T16:23:00Z,27.2205,-90.0116,9.9,30.3,11111222
BP,ioos:station:wmo:42880:1,2023-10-02T16:33:00Z,27.2205,-90.0116,9.8,30.2,11111222
BP,ioos:station:wmo:42880:1,2023-10-02T16:43:00Z,27.2205,-90.0116,10.0,30.2,11111222
BP,ioos:station:wmo:42880:1,2023-10-02T16:53:00Z,27.2205,-90.0116,10.2,30.2,11111222
BP,ioos:station:wmo:42880:1,2023-10-02T17:03:00Z,27.2205,-90.0116,10.2,30.3,11111222
BP,ioos:station:wmo:42880:1,2023-10-02T17:13:00Z,27.2205,-90.0116,10.2,30.3,11111222
BP,ioos:station:wmo:42880:1,2023-10-02T17:23:00Z,27.2205,-90.0116,10.2,30.3,11111222
BP,ioos:station:wmo:42880:1,2023-10-02T17:33:00Z,27.2205,-90.0116,10.2,30.3,11111222
BP,ioos:station:wmo:42880:1,2023-10-02T17:43:00Z,27.2205,-90.0116,10.2,30.3,11111222
BP,ioos:station:wmo:42880:1,2023-10-02T17:53:00Z,27.2205,-90.0116,10.2,30.3,11111222
BP,ioos:station:wmo:42880:1,2023-10-02T18:03:00Z,27.2205,-90.0116,10.2,30.3,11111222
BP,ioos:station:wmo:42880:1,2023-10-02T18:13:00Z,27.2205,-90.0116,10.2,30.3,11111222
BP,ioos:station:wmo:42880:1,2023-10-02T18:23:00Z,27.2205,-90.0116,10.2,30.3,11111222
BP,ioos:station:wmo:42880:1,2023-10-02T18:33:00Z,27.2205,-90.0116,10.2,30.3,11111222
BP,ioos:station:wmo:42880:1,2023-10-02T18:43:00Z,27.2205,-90.0116,10.2,30.3,11111222
BP,ioos:station:wmo:42880:1,2023-10-02T18:53:00Z,27.2205,-90.0116,10.2,30.3,11111222
BP,ioos:station:wmo:42880:1,2023-10-02T19:03:00Z,27.2205,-90.0116,10.2,30.3,11111222
BP,ioos:station:wmo:42880:1,2023-10-02T19:13:00Z,27.2205,-90.0116,10.2,30.3,11111222
BP,ioos:station:wmo:42880:1,2023-10-02T19:23:00Z,27.2205,-90.0116,10.2,30.3,11111222
BP,ioos:station:wmo:42880:1,2023-10-02T19:33:00Z,27.2205,-90.0116,10.2,30.3,11111222
BP,ioos:station:wmo:42880:1,2023-10-02T19:43:00Z,27.2205,-90.0116,10.2,30.4,11111222
BP,ioos:station:wmo:42880:1,2023-10-02T19:53:00Z,27.2205,-90.0116,10.2,30.4,11111222
BP,ioos:station:wmo:42880:1,2023-10-02T20:03:00Z,27.2205,-90.0116,10.2,30.4,11111222
BP,ioos:station:wmo:42880:1,2023-10-02T20:13:00Z,27.2205,-90.0116,10.1,30.4,11111222
BP,ioos:station:wmo:42880:1,2023-10-02T20:23:00Z,27.2205,-90.0116,10.1,30.4,11111222
BP,ioos:station:wmo:42880:1,2023-10-02T20:33:00Z,27.2205,-90.0116,10.1,30.4,11111222
BP,ioos:station:wmo:42880:1,2023-10-02T20:43:00Z,27.2205,-90.0116,10.1,30.4,11111222
BP,ioos:station:wmo:42880:1,2023-10-02T20:53:00Z,27.2205,-90.0116,10.1,30.4,11111222
BP,ioos:station:wmo:42880:1,2023-10-02T21:03:00Z,27.2205,-90.0116,10.1,30.4,11111222
BP,ioos:station:wmo:42880:1,2023-10-02T21:13:00Z,27.2205,-90.0116,10.1,30.4,11111222
BP,ioos:station:wmo:42880:1,2023-10-02T21:23:00Z,27.2205,-90.0116,10.1,30.4,11111222
BP,ioos:station:wmo:42880:1,2023-10-02T21:33:00Z,27.2205,-90.0116,10.1,30.4,11111222
BP,ioos:station:wmo:42880:1,2023-10-02T21:43:00Z,27.2205,-90.0116,10.2,30.4,11111222
BP,ioos:station:wmo:42880:1,2023-10-02T21:53:00Z,27.2205,-90.0116,10.2,30.4,11111222
BP,ioos:station:wmo:42880:1,2023-10-02T22:03:00Z,27.2205,-90.0116,10.2,30.4,11111222
BP,ioos:station:wmo:42880:1,2023-10-02T22:13:00Z,27.2205,-90.0116,10.2,30.4,11111222
BP,ioos:station:wmo:42880:1,2023-10-02T22:23:00Z,27.2205,-90.0116,10.1,30.4,11111222
BP,ioos:station:wmo:42880:1,2023-10-02T22:33:00Z,27.2205,-90.0116,10.1,30.4,11111222
BP,ioos:station:wmo:42880:1,2023-10-02T22:43:00Z,27.2205,-90.0116,10.1,30.4,11111222